STARLINK-34301

Last updated on Thu Jul 03 2025 00:02:06 GMT+0000 (Coordinated Universal Time)

1 64349U 25126F 25183.58335648 -.01414602 00000+0 -17107-1 0 9999 2 64349 69.9997 310.2285 0003079 269.8435 302.7184 15.63226242 4321
UTC large
Height (km)
Speed (km/s)
/
Latitude / Longitude
Inclination (degrees)
Orbital Period (minutes)
Azimuth
Elevation
Range (km)
Doppler Factor

Next 0 passes for location: London (51.5072 / 0.1276)

Sorry there are no passes over London.